Retour au catalogue

SL-8 DEB

LostLEO
NORAD 39693·DEBRIS·🇷🇺 Russia

Lancé Feb 12, 1991 depuis Plesetsk Cosmodrome

Loading…

Prochains Passages (prochaines 24 heures)

TLE

PériméSource: Space-Track

Époque: Sep 3, 2025, 00:06 UTC

1 39693U 91009DG  25246.00469868 -.00000011  00000-0  41412-4 0  9998
2 39693  74.0364 159.8593 0129811 316.4018  42.6815 12.20925747507581

Suivez SL-8 DEB en temps réel avec AllMySat

Download on the App Store